• en France
  • Liste des pays
  • À 7 jours
  • Température de l'eau
  • Carte satellitaire
  • Carte météo
  • Widgets météo
  • user-avatar
    Se connecter

    Météo par heure à Lapeki

    Ce jour, 24 Mai, Jeudi

    Heure Température Précipitation Vent Pression Humidité
    00:00 +13°C° 0 mm 1 m/s 752 mmHg 94%
    01:00 +12°C° 0 mm 1 m/s 752 mmHg 94%
    02:00 +12°C° 0 mm 1 m/s 752 mmHg 95%
    03:00 +12°C° 0,1 mm 1 m/s 752 mmHg 95%
    04:00 +12°C° 0,1 mm 1 m/s 752 mmHg 96%
    05:00 +12°C° 0,1 mm 1 m/s 752 mmHg 96%
    06:00 +14°C° 0,1 mm 2 m/s 752 mmHg 93%
    07:00 +15°C° 0,1 mm 2 m/s 752 mmHg 89%
    08:00 +17°C° 0,1 mm 2 m/s 752 mmHg 86%
    09:00 +18°C° 0,6 mm 2 m/s 752 mmHg 80%
    10:00 +19°C° 0,6 mm 3 m/s 752 mmHg 75%
    11:00 +20°C° 0,6 mm 3 m/s 752 mmHg 69%
    12:00 +21°C° 0,6 mm 3 m/s 752 mmHg 69%
    13:00 +21°C° 0,6 mm 3 m/s 752 mmHg 69%
    14:00 +21°C° 0,6 mm 3 m/s 752 mmHg 69%
    15:00 +21°C° 0,5 mm 3 m/s 752 mmHg 69%
    16:00 +21°C° 0,5 mm 3 m/s 752 mmHg 69%
    17:00 +21°C° 0,5 mm 3 m/s 752 mmHg 69%
    18:00 +19°C° 0,4 mm 3 m/s 752 mmHg 75%
    19:00 +18°C° 0,4 mm 2 m/s 752 mmHg 81%
    20:00 +16°C° 0,4 mm 2 m/s 752 mmHg 87%
    21:00 +15°C° 0 mm 2 m/s 752 mmHg 88%
    22:00 +15°C° 0 mm 2 m/s 752 mmHg 89%
    23:00 +14°C° 0 mm 2 m/s 753 mmHg 91%

    Demain, 25 Mai, Vendredi

    Heure Température Précipitation Vent Pression Humidité
    00:00 +13°C° 0 mm 2 m/s 753 mmHg 92%
    01:00 +13°C° 0 mm 2 m/s 753 mmHg 92%
    02:00 +12°C° 0 mm 2 m/s 754 mmHg 93%
    03:00 +13°C° 0 mm 2 m/s 754 mmHg 93%
    04:00 +13°C° 0 mm 2 m/s 754 mmHg 93%
    05:00 +13°C° 0 mm 2 m/s 754 mmHg 92%
    06:00 +15°C° 0 mm 2 m/s 755 mmHg 87%
    07:00 +16°C° 0 mm 3 m/s 755 mmHg 82%
    08:00 +18°C° 0 mm 3 m/s 756 mmHg 77%
    09:00 +19°C° 0 mm 3 m/s 756 mmHg 70%
    10:00 +21°C° 0 mm 3 m/s 756 mmHg 63%
    11:00 +22°C° 0 mm 3 m/s 756 mmHg 56%
    12:00 +24°C° 0 mm 3 m/s 756 mmHg 53%
    13:00 +24°C° 0 mm 3 m/s 756 mmHg 50%
    14:00 +24°C° 0 mm 3 m/s 756 mmHg 47%
    15:00 +24°C° 0 mm 3 m/s 756 mmHg 48%
    16:00 +22°C° 0 mm 3 m/s 756 mmHg 49%
    17:00 +22°C° 0 mm 3 m/s 756 mmHg 51%
    18:00 +20°C° 0 mm 3 m/s 757 mmHg 57%
    19:00 +17°C° 0 mm 3 m/s 757 mmHg 64%
    20:00 +15°C° 0 mm 2 m/s 757 mmHg 70%
    21:00 +14°C° 0 mm 2 m/s 758 mmHg 72%
    22:00 +13°C° 0 mm 2 m/s 758 mmHg 73%
    23:00 +12°C° 0 mm 2 m/s 758 mmHg 74%

    Après-demain, 26 Mai, Samedi

    Heure Température Précipitation Vent Pression Humidité
    00:00 +12°C° 0 mm 2 m/s 759 mmHg 76%
    01:00 +10°C° 0 mm 2 m/s 759 mmHg 78%
    02:00 +10°C° 0 mm 2 m/s 759 mmHg 79%
    03:00 +10°C° 0 mm 2 m/s 760 mmHg 80%
    04:00 +10°C° 0 mm 2 m/s 760 mmHg 80%
    05:00 +10°C° 0 mm 2 m/s 760 mmHg 80%
    06:00 +13°C° 0 mm 2 m/s 760 mmHg 74%
    07:00 +15°C° 0 mm 2 m/s 760 mmHg 68%
    08:00 +16°C° 0 mm 3 m/s 760 mmHg 62%
    09:00 +18°C° 0 mm 3 m/s 760 mmHg 57%
    10:00 +19°C° 0 mm 3 m/s 760 mmHg 53%
    11:00 +20°C° 0 mm 3 m/s 760 mmHg 48%
    12:00 +20°C° 0 mm 3 m/s 760 mmHg 48%
    13:00 +21°C° 0 mm 3 m/s 760 mmHg 48%
    14:00 +21°C° 0 mm 3 m/s 759 mmHg 48%
    15:00 +21°C° 0 mm 3 m/s 759 mmHg 50%
    16:00 +21°C° 0 mm 3 m/s 759 mmHg 52%
    17:00 +20°C° 0 mm 3 m/s 758 mmHg 54%
    18:00 +19°C° 0 mm 2 m/s 758 mmHg 62%
    19:00 +17°C° 0 mm 2 m/s 758 mmHg 70%
    20:00 +15°C° 0 mm 2 m/s 758 mmHg 78%
    21:00 +14°C° 0 mm 2 m/s 758 mmHg 80%
    22:00 +13°C° 0 mm 2 m/s 758 mmHg 83%
    23:00 +12°C° 0 mm 2 m/s 759 mmHg 85%

    27 Mai, Dimanche

    Heure Température Précipitation Vent Pression Humidité
    00:00 +12°C° 0 mm 2 m/s 759 mmHg 86%
    01:00 +10°C° 0 mm 2 m/s 759 mmHg 87%
    02:00 +10°C° 0 mm 2 m/s 758 mmHg 88%
    03:00 +10°C° 0 mm 2 m/s 758 mmHg 88%
    04:00 +10°C° 0 mm 2 m/s 758 mmHg 87%
    05:00 +10°C° 0 mm 2 m/s 758 mmHg 86%
    06:00 +13°C° 0 mm 2 m/s 758 mmHg 79%
    07:00 +14°C° 0 mm 2 m/s 758 mmHg 73%
    08:00 +16°C° 0 mm 2 m/s 758 mmHg 66%
    09:00 +18°C° 0 mm 2 m/s 758 mmHg 61%
    10:00 +19°C° 0 mm 2 m/s 758 mmHg 55%
    11:00 +20°C° 0 mm 2 m/s 758 mmHg 50%
    12:00 +21°C° 0 mm 2 m/s 757 mmHg 49%
    13:00 +23°C° 0 mm 1 m/s 757 mmHg 47%
    14:00 +23°C° 0 mm 1 m/s 756 mmHg 46%
    15:00 +23°C° 0 mm 1 m/s 756 mmHg 47%
    16:00 +23°C° 0 mm 1 m/s 756 mmHg 48%
    17:00 +21°C° 0 mm 0 m/s 756 mmHg 49%
    18:00 +19°C° 0 mm 0 m/s 756 mmHg 56%
    19:00 +17°C° 0 mm 0 m/s 756 mmHg 64%
    20:00 +16°C° 0 mm 1 m/s 756 mmHg 71%
    21:00 +15°C° 0 mm 1 m/s 756 mmHg 73%
    22:00 +14°C° 0 mm 1 m/s 756 mmHg 76%
    23:00 +13°C° 0 mm 1 m/s 756 mmHg 78%

    28 Mai, Lundi

    Heure Température Précipitation Vent Pression Humidité
    00:00 +13°C° 0 mm 1 m/s 756 mmHg 79%
    01:00 +13°C° 0 mm 1 m/s 757 mmHg 80%
    02:00 +13°C° 0 mm 1 m/s 757 mmHg 82%
    03:00 +13°C° 0 mm 1 m/s 757 mmHg 82%
    04:00 +13°C° 0 mm 1 m/s 757 mmHg 82%
    05:00 +14°C° 0 mm 1 m/s 757 mmHg 82%
    06:00 +15°C° 0 mm 2 m/s 758 mmHg 77%
    07:00 +17°C° 0 mm 2 m/s 758 mmHg 73%
    08:00 +19°C° 0 mm 2 m/s 758 mmHg 68%
    09:00 +20°C° 0 mm 2 m/s 758 mmHg 63%
    10:00 +21°C° 0 mm 3 m/s 759 mmHg 57%
    11:00 +24°C° 0 mm 3 m/s 759 mmHg 52%
    12:00 +24°C° 0 mm 3 m/s 759 mmHg 49%
    13:00 +24°C° 0 mm 3 m/s 759 mmHg 46%
    14:00 +25°C° 0 mm 3 m/s 759 mmHg 43%
    15:00 +25°C° 0 mm 3 m/s 759 mmHg 45%
    16:00 +24°C° 0 mm 2 m/s 759 mmHg 46%
    17:00 +24°C° 0 mm 2 m/s 759 mmHg 48%
    18:00 +21°C° 0 mm 2 m/s 759 mmHg 54%
    19:00 +18°C° 0 mm 2 m/s 759 mmHg 61%
    20:00 +16°C° 0 mm 2 m/s 759 mmHg 68%
    21:00 +15°C° 0 mm 2 m/s 759 mmHg 69%
    22:00 +14°C° 0 mm 1 m/s 759 mmHg 70%
    23:00 +12°C° 0 mm 1 m/s 760 mmHg 71%

    29 Mai, Mardi

    Heure Température Précipitation Vent Pression Humidité
    00:00 +12°C° 0 mm 1 m/s 760 mmHg 71%
    01:00 +11°C° 0 mm 1 m/s 760 mmHg 72%
    02:00 +10°C° 0 mm 1 m/s 760 mmHg 72%
    03:00 +11°C° 0 mm 1 m/s 760 mmHg 72%
    04:00 +11°C° 0 mm 1 m/s 760 mmHg 72%
    05:00 +11°C° 0 mm 1 m/s 760 mmHg 72%
    06:00 +14°C° 0 mm 1 m/s 760 mmHg 65%
    07:00 +16°C° 0 mm 1 m/s 760 mmHg 59%
    08:00 +20°C° 0 mm 1 m/s 760 mmHg 52%
    09:00 +21°C° 0 mm 1 m/s 760 mmHg 48%
    10:00 +23°C° 0 mm 1 m/s 760 mmHg 45%
    11:00 +24°C° 0 mm 1 m/s 760 mmHg 41%
    12:00 +25°C° 0 mm 1 m/s 759 mmHg 40%
    13:00 +25°C° 0 mm 1 m/s 759 mmHg 39%
    14:00 +26°C° 0 mm 1 m/s 759 mmHg 38%
    15:00 +26°C° 0 mm 1 m/s 758 mmHg 41%
    16:00 +25°C° 0 mm 1 m/s 758 mmHg 43%
    17:00 +25°C° 0 mm 1 m/s 757 mmHg 46%
    18:00 +23°C° 0 mm 1 m/s 757 mmHg 54%
    19:00 +21°C° 0 mm 1 m/s 757 mmHg 62%
    20:00 +18°C° 0 mm 2 m/s 756 mmHg 69%
    21:00 +17°C° 0 mm 2 m/s 756 mmHg 71%
    22:00 +16°C° 0 mm 2 m/s 756 mmHg 72%
    23:00 +15°C° 0 mm 2 m/s 756 mmHg 73%
    Voir plus